Observations for Trim Market St
| Time | AQI | Temp °C | Hum % | Pres Pa | CO μg/m³ | H₂S μg/m³ | NO μg/m³ | NO₂ μg/m³ | O₃ μg/m³ | SO₂ μg/m³ | PM1 μg/m³ | PM2.5 μg/m³ | PM10 μg/m³ |
|---|---|---|---|---|---|---|---|---|---|---|---|---|---|
| Friday 14 August 2026 | |||||||||||||
| 14:38 | 2 | 29.5 | 38 | 65,799 | 0 | 0.44 | 0.94 | 48.02 | 49.45 | 0 | 0 | 2.46 | 2.7 |
| 14:37 | 2 | 29.6 | 37 | 65,847 | 0 | 0 | 0.94 | 14.46 | 55.62 | 0 | 0 | 2.46 | 2.71 |
| 14:36 | 2 | 29.6 | 37 | 65,849 | 0 | 0 | 0.8 | 26.13 | 42.69 | 0 | 0 | 3 | 3.3 |
| 14:35 | 2 | 29.7 | 37 | 65,853 | 0 | 0 | 0.74 | 13.37 | 38.69 | 0 | 0 | 2.47 | 2.72 |
| 14:34 | 2 | 29.7 | 37 | 65,860 | 0.07 | 0.22 | 0.66 | 20.81 | 54.84 | 0 | 0 | 2.47 | 2.72 |
| 14:33 | 2 | 29.7 | 37 | 65,868 | 0 | 0 | 0.69 | 13.29 | 62.31 | 0 | 0 | 2.48 | 2.73 |
| 14:32 | 2 | 29.8 | 37 | 65,904 | 0.14 | 0 | 0.92 | 13.83 | 57.55 | 0 | 0 | 3.01 | 3.32 |
| 14:30 | 2 | 29.9 | 37 | 65,892 | 0.18 | 0 | 0.87 | 13.48 | 44.17 | 0 | 0 | 2.49 | 2.73 |
| 14:28 | 2 | 29.9 | 37 | 65,888 | 0 | 0 | 0.91 | 60.09 | 38.9 | 0 | 0.71 | 3.02 | 3.32 |
| 14:25 | 2 | 29.9 | 37 | 65,868 | 0 | 0 | 0.76 | 17.13 | 49.86 | 0 | 0 | 2.46 | 2.71 |
| 14:21 | 2 | 29.7 | 38 | 65,787 | 0.01 | 0 | 0.75 | 12.23 | 49.17 | 0 | 0.71 | 3.5 | 3.85 |
| 14:15 | 2 | 28.9 | 39 | 65,576 | 0 | 5.25 | 0.81 | 18.84 | 68.5 | 0 | 0 | 2.92 | 3.22 |
| 14:14 | 2 | 28.8 | 39 | 65,534 | 0 | 4.21 | 0.96 | 29.55 | 49.7 | 0 | 0 | 2.39 | 2.63 |
| 14:12 | 2 | 28.5 | 40 | 65,435 | 0 | 5.08 | 1.01 | 15 | 64.33 | 0 | 0 | 2.37 | 2.61 |
| 14:11 | 2 | 28.4 | 40 | 65,388 | 0 | 5.41 | 1.03 | 18.31 | 60.32 | 0 | 0.71 | 2.9 | 3.19 |
| 14:10 | 2 | 28.4 | 40 | 65,327 | 0 | 9.77 | 0.97 | 49.63 | 47.23 | 0 | 0 | 2.37 | 2.6 |
| 14:09 | 2 | 28.3 | 40 | 65,274 | 0 | 9.96 | 0.79 | 34.85 | 56.33 | 0 | 0 | 2.37 | 2.68 |
| 14:06 | 2 | 28.3 | 40 | 65,168 | 0 | 10.47 | 1.29 | 14.57 | 60.42 | 0 | 0 | 2.35 | 2.58 |
| 14:05 | 2 | 28.3 | 40 | 65,133 | 0 | 17.74 | 1.67 | 31.41 | 62.3 | 0 | 0 | 2.34 | 2.58 |
| 14:03 | 2 | 28.3 | 40 | 65,097 | 0 | 19.31 | 1.98 | 62.47 | 41.07 | 0 | 0 | 2.34 | 2.58 |